Weather History for CYUS - January, 2014

Change the Weather History Date:

Friday, January 10, 2014

  Actual Average Record
Temperature  
Mean Temperature -29 °F -  
Max Temperature -25 °F - - ()
Min Temperature -33 °F - - ()
Degree Days  
Heating Degree Days 94    
Moisture  
Dew Point -    
Average Humidity    
Maximum Humidity    
Minimum Humidity    
Precipitation  
Precipitation 0.00 in - - ()
Sea Level Pressure  
Sea Level Pressure 29.36 in    
Wind  
Wind Speed 13 mph ()    
Max Wind Speed 18 mph    
Max Gust Speed 23 mph    
T = Trace of Precipitation, MM = Missing Value Source: Averaged Metar Reports

Daily Weather History Graph

Daily Weather History Graph

Search for Another Location

Airport or City:

Trip Planner

Search our weather history database for the weather conditions in past years. The results will help you decide how hot, cold, wet, or windy it might be!

Date:

Astronomy

Jan. 10, 2014 Rise Set
Actual Time 11:54 AM CST 12:48 PM CST
Civil Twilight 9:27 AM CST 3:15 PM CST
Nautical Twilight 8:00 AM CST 4:43 PM CST
Astronomical Twilight 6:47 AM CST 5:55 PM CST
Moon 10:47 AM CST (1/10) 5:01 AM CST (1/10)
Length of Visible Light 5h 48m
Length of Day
0h 54m
Waxing Gibbous, 75% of the Moon is Illuminated
Jan 10
Waxing Gibbous
Jan 15
Full
Jan 23
Last Quarter
Jan 30
New
Feb 6
First Quarter

Hourly Weather History & Observations

Time (CST) Temp. Windchill Dew Point Humidity Pressure Visibility Wind Dir Wind Speed Gust Speed Precip Events Conditions
12:00 AM -27 °F - - % 29.22 in - WNW 18.4 mph - -  
12:00 AM -27.4 °F -56.9 °F - N/A% 29.22 in - WNW 18.4 mph - N/A   Mostly Cloudy
12:03 AM -27.4 °F -56.9 °F - N/A% 29.19 in - WNW 18.4 mph - N/A   Mostly Cloudy
12:18 AM -27.4 °F -56.9 °F - N/A% 29.20 in - WNW 18.4 mph - N/A   Overcast
12:31 AM -27.4 °F -53.5 °F - N/A% 29.20 in - WNW 13.8 mph - N/A   Mostly Cloudy
12:36 AM -27.4 °F -54.5 °F - N/A% 29.20 in - WNW 15.0 mph - N/A   Scattered Clouds
12:38 AM -27.4 °F -52.5 °F - N/A% 29.21 in - WNW 12.7 mph - N/A   Partly Cloudy
12:59 AM -27.4 °F -54.5 °F - N/A% 29.21 in - WNW 15.0 mph - N/A   Clear
1:00 AM -27.4 °F -54.5 °F - N/A% 29.24 in - WNW 15.0 mph - N/A   Clear
1:16 AM -27.4 °F -56.1 °F - N/A% 29.21 in - West 17.3 mph - N/A   Clear
2:00 AM -27.4 °F -55.3 °F - N/A% 29.26 in - West 16.1 mph - N/A   Partly Cloudy
2:18 AM -25.6 °F -53.8 °F - N/A% 29.24 in - WNW 17.3 mph 23.0 mph N/A   Mostly Cloudy
2:38 AM -25.6 °F -54.6 °F - N/A% 29.24 in - West 18.4 mph - N/A   Scattered Clouds
3:00 AM -27 °F - - % 29.28 in - WNW 16.1 mph - -  
3:00 AM -27.4 °F -55.3 °F - N/A% 29.28 in - West 16.1 mph - N/A   Clear
4:00 AM -27.4 °F -56.9 °F - N/A% 29.30 in - West 18.4 mph - N/A   Clear
4:50 AM -27.4 °F -51.4 °F - N/A% 29.29 in - West 11.5 mph - N/A   Mostly Cloudy
4:56 AM -27.4 °F -52.5 °F - N/A% 29.29 in - West 12.7 mph - N/A   Partly Cloudy
5:00 AM -27.4 °F -54.5 °F - N/A% 29.32 in - West 15.0 mph - N/A   Partly Cloudy
5:21 AM -29.2 °F -54.8 °F - N/A% 29.30 in - West 12.7 mph - N/A   Clear
5:43 AM -29.2 °F -54.8 °F - N/A% 29.30 in - West 12.7 mph - N/A   Clear
6:00 AM -29 °F - - % 29.33 in - West 15.0 mph - -  
6:00 AM -29.2 °F -57.6 °F - N/A% 29.33 in - West 16.1 mph - N/A   Clear
6:27 AM -29.2 °F -55.8 °F - N/A% 29.30 in - West 13.8 mph - N/A   Clear
6:44 AM -29.2 °F -55.8 °F - N/A% 29.30 in - West 13.8 mph - N/A   Clear
7:00 AM -29.2 °F -55.8 °F - N/A% 29.34 in - West 13.8 mph - N/A   Clear
7:37 AM -31.0 °F -57.1 °F - N/A% 29.32 in - West 12.7 mph - N/A   Clear
8:00 AM -31.0 °F -60.0 °F - N/A% 29.35 in - West 16.1 mph - N/A   Clear
9:00 AM -32 °F - - % 29.37 in - WNW 15.0 mph - -  
9:00 AM -32.8 °F -58.2 °F - N/A% 29.37 in - WNW 11.5 mph - N/A   Clear
10:00 AM -32.8 °F -52.4 °F - N/A% 29.39 in - West 6.9 mph - N/A   Clear
11:00 AM -32.8 °F -52.4 °F - N/A% 29.40 in - West 6.9 mph - N/A   Clear
11:23 AM -32.8 °F -55.6 °F - N/A% 29.36 in - West 9.2 mph - N/A   Clear
11:49 AM -32.8 °F -50.5 °F - N/A% 29.38 in - West 5.8 mph - N/A   Clear
12:00 PM -33 °F - - % 29.41 in - West 6.9 mph - -  
12:00 PM -32.8 °F -50.5 °F - N/A% 29.41 in - West 5.8 mph - N/A   Clear
12:02 PM -32.8 °F -52.4 °F - N/A% 29.38 in - West 6.9 mph - N/A   Clear
12:20 PM -32.8 °F -55.6 °F - N/A% 29.38 in - West 9.2 mph - N/A   Clear
12:41 PM -32.8 °F -57.0 °F - N/A% 29.38 in - West 10.4 mph - N/A   Clear
12:59 PM -32.8 °F -52.4 °F - N/A% 29.39 in - West 6.9 mph - N/A   Clear
1:00 PM -32.8 °F -52.4 °F - N/A% 29.42 in - West 6.9 mph - N/A   Clear
1:29 PM -32.8 °F -52.4 °F - N/A% 29.40 in - West 6.9 mph - N/A   Clear
2:00 PM -32.8 °F -54.1 °F - N/A% 29.44 in - WSW 8.1 mph - N/A   Clear
3:00 PM -33 °F - - % 29.46 in - WSW 8.1 mph - -  
3:00 PM -32.8 °F -54.1 °F - N/A% 29.46 in - WSW 8.1 mph - N/A   Clear
4:00 PM -32.8 °F -54.1 °F - N/A% 29.47 in - SSW 8.1 mph - N/A   Clear
5:00 PM -32.8 °F -58.2 °F - N/A% 29.49 in - SSW 11.5 mph - N/A   Clear
6:00 PM -31 °F - - % 29.49 in - SW 11.5 mph - -  
6:00 PM -31.0 °F -57.1 °F - N/A% 29.49 in - SW 12.7 mph - N/A   Scattered Clouds
6:23 PM -31.0 °F -54.7 °F - N/A% 29.46 in - SSW 10.4 mph - N/A   Partly Cloudy
6:39 PM -29.2 °F -53.7 °F - N/A% 29.46 in - SW 11.5 mph - N/A   Mostly Cloudy
6:54 PM -29.2 °F -55.8 °F - N/A% 29.46 in - SW 13.8 mph - N/A   Overcast
7:00 PM -29.2 °F -53.7 °F - N/A% 29.49 in - SW 11.5 mph - N/A   Mostly Cloudy
7:09 PM -27.4 °F -51.4 °F - N/A% 29.46 in - SW 11.5 mph - N/A   Mostly Cloudy
8:00 PM -25.6 °F -50.2 °F - N/A% 29.49 in - SW 12.7 mph - N/A   Overcast
8:31 PM -27.4 °F -53.5 °F - N/A% 29.46 in - SW 13.8 mph - N/A   Mostly Cloudy
9:00 PM -28 °F - - % 29.50 in - SSW 15.0 mph - -   Overcast
9:00 PM -27.4 °F -55.3 °F - N/A% 29.50 in - SW 16.1 mph - N/A   Overcast
9:33 PM -29.2 °F -55.8 °F - N/A% 29.47 in - SW 13.8 mph - N/A   Partly Cloudy
10:00 PM -27.4 °F -52.5 °F - N/A% 29.50 in - SW 12.7 mph - N/A   Clear
11:00 PM -27.4 °F -52.5 °F - N/A% 29.51 in - SW 12.7 mph - N/A   Clear